THOR ABLESTAR DEB, 234

Orbit data source: Space-Track

THOR ABLESTAR DEB, 234 is space debris in LEO originally from a launch on Thu, 29 Jun 1961 UTC launched from the Air Force Eastern Test Range (AFETR). Debris objects in space refer to the collection of defunct objects orbiting the Earth. Examples of debris include non-operational satellites, rocket bodies, and fragments generated from explosions, collisions, or faulty payload assembly.

Loading next visibility...
Identifier
234, 1961-015BS
Orbit
LEO
Country
Flag of USUS
Related business
Manufacturer
Unknown
Mission
Spacecraft
Bus & Motor
Unknown
Mass
Unknown
Launch date (UTC)
1961-06-29 (64 years ago)
Launch vehicle
Unknown
Launch site
Air Force Eastern Test Range (AFETR)
Object type
Payload
Rocket body
Debris
Shape & HBR
Unknown shape, 0.1 m
Radar Cross Section
Small (<0.1 m²)

Expand to show TLE details & history
Last TLE update: 2 days ago

TLE from 2 days ago
0 THOR ABLESTAR DEB
1 00234U 61015BS  25306.30332483  .00000357  00000-0  26885-3 0  9991
2 00234  66.8777   5.7605 0076167 291.2200  68.0762 14.03909741279586
Epoch: 2025-11-02T07:16Z
TLE epoch observation values (Epoch: 2025-11-02T07:16:47.265Z)
Latitude
0.00001°
Longitude
-145.25742°
Altitude
862.103 km
Speed
7.432 km/s
True Right ascension
00h 23m 02s
True Declination
0° 00' 00"
Sunlit
Object was in full shadow at epoch
Visualization orbit readout
Latitude
Unknown
Longitude
Unknown
Altitude
Unknown
Speed
Unknown
Apparent Right ascension
Unknown
Apparent Declination
Unknown
Sunlit
N/A
Visualization observer readout
Local Sidereal Time
15:46:44
Azimuth
Unknown
Elevation
Unknown
Doppler factor
Unknown
Orbital elements
Apogee altitude
933.935 km
Perigee altitude
823.389 km
Semi-major axis
7,256.799 km
Eccentricity
0.00762
Inclination
66.8777°
RAAN
5.7605°
Arg. of periapsis
291.22°
True anomaly
68.88875°
Mean anomaly
68.0762°
Eccentric anomaly
68.48219°
Mean motion
3.51096 °/min
Orbital period
102.54 mins
BSTAR
0.00026885
Loading maneuver chart data...
Computing Atmospheric mass density...

Documentation

Showing up to 5 results
|